This is the latest recevied weather packets stored in our database for station/object W1CAT. If no packets are shown the sender has not sent any weather packets the latest 10 day(s).
| Time | Temp. | Humidity | Pressure | Rain* | Wind** | Luminosity | Snow |
|---|---|---|---|---|---|---|---|
| 1787761805 | 22.22° C | 40% | - | 0 mm | - | - | - |
| 1787761501 | 22.22° C | 41% | - | 0 mm | - | - | - |
| 1787761195 | 20.56° C | 45% | - | 0 mm | - | - | - |
| 1787760894 | 20° C | 45% | - | 0 mm | - | - | - |
| 1787760593 | 20.56° C | 46% | - | 0 mm | - | - | - |
| 1787760292 | 21.11° C | 45% | - | 0 mm | - | - | - |
| 1787759989 | 20.56° C | 48% | - | 0 mm | - | - | - |
| 1787759684 | 20° C | 48% | - | 0 mm | - | - | - |
| 1787759380 | 19.44° C | 50% | - | 0 mm | - | - | - |
| 1787759075 | 18.89° C | 51% | - | 0 mm | - | - | - |
| 1787758774 | 19.44° C | 51% | - | 0 mm | - | - | - |
| 1787758470 | 18.33° C | 53% | - | 0 mm | - | - | - |
| 1787758169 | 17.78° C | 54% | - | 0 mm | - | - | - |
| 1787757865 | 17.78° C | 54% | - | 0 mm | - | - | - |
| 1787757560 | 17.78° C | 53% | - | 0 mm | - | - | - |
| 1787757260 | 17.22° C | 55% | - | 0 mm | - | - | - |
| 1787756958 | 17.22° C | 54% | - | 0 mm | - | - | - |
| 1787756654 | 16.67° C | 57% | - | 0 mm | - | - | - |
| 1787756353 | 16.11° C | 57% | - | 0 mm | - | - | - |
| 1787756048 | 16.11° C | 57% | - | 0 mm | - | - | - |
| 1787755743 | 15.56° C | 59% | - | 0 mm | - | - | - |
| 1787755437 | 15.56° C | 63% | - | 0 mm | - | - | - |
| 1787755137 | 15° C | 63% | - | 0 mm | - | - | - |
| 1787754831 | 15° C | 65% | - | 0 mm | - | - | - |
| 1787754531 | 15° C | 63% | - | 0 mm | - | - | - |
* Rain latest hour (hover to see other rain measurements)
** Current wind speed in m/s (hover to see current wind gust speed)